Effective Sunday, March 17, 2024, the National Weather Service National Data Buoy Center will discontinue its Dial-A-Buoy Interactive Voice Response system. For more information, see Service Change Notice 24-06 (PDF).

Station FHPF1 - FHP - Fred Howard Park, FL Image indicating link to RSS feed of recent meteorological observations for station FHPF1


Conditions at FHPF1 as of
(1:54 am EST)
0654 GMT on 02/29/2024:
     

Click on the graph icon in the table below to see a time series plot of the last five days of that observation.

5-day plot - Wind Speed Wind Speed (WSPD): 0.0 kts
5-day plot - Wind Gust Wind Gust (GST): 1.0 kts
5-day plot - Atmospheric Pressure Atmospheric Pressure (PRES):30.18 in
5-day plot - Air Temperature Air Temperature (ATMP): 68.9 °F
5-day plot - Dew Point Dew Point (DEWP): 66.6 °F
5-day plot - Tide (above MLLW) Tide (above MLLW) (TIDE): 2.66 ft
5-day plot - Wind Speed at 10 Meters Wind Speed at 10 meters (WSPD10M): 1.9 kts
5-day plot - Wind Speed at 20 Meters Wind Speed at 20 meters (WSPD20M): 1.9 kts
5-day plot -  Wind Speed, Wind Gust and Atmospheric Pressure Combined plot of Wind Speed, Gust, and Air Pressure
Previous observations
TIME
(EST)
5-day plot - Wind Direction
WDIR
 
5-day plot - Wind Speed
WSPD
kts
5-day plot - Wind Gust
GST
kts
5-day plot - Wave Height
WVHT
ft
5-day plot - Dominant Wave Period
DPD
sec
5-day plot - Average Wave Period
APD
sec
5-day plot - Mean Wave Direction
MWD
 
5-day plot - Atmospheric Pressure
PRES
in
5-day plot - Pressure Tendency
PTDY
in
5-day plot - Air Temperature
ATMP
°F
5-day plot - Water Temperature
WTMP
°F
5-day plot - Dew Point
DEWP
°F
5-day plot - Salinity
SAL
psu
5-day plot - Visibility
VIS
nmi
5-day plot - Tide (above MLLW)
TIDE
ft
2024-02-29 01:48 am- 0.0 1.9----30.18- 69.1- 66.6---
2024-02-29 01:42 amESE 1.9 1.9------ 69.1- 66.6-- 2.69
2024-02-29 01:36 amESE 1.0 1.9----------- 2.66
2024-02-29 01:30 am SE 1.0 1.9----------- 2.66
2024-02-29 01:24 am E 1.9 2.9----------- 2.62
2024-02-29 12:54 amESE 1.9 2.9----30.19- 69.8- 66.9-- 2.46
2024-02-29 12:48 amESE 1.9 1.9----30.19- 69.8- 67.1-- 2.46
2024-02-29 12:42 am SE 1.9 2.9------ 69.8- 66.9-- 2.40
2024-02-29 12:36 am E 1.9 2.9------ 69.8- 66.7-- 2.36
2024-02-29 12:30 amESE 2.9 2.9----------- 2.30
2024-02-29 12:24 am SE 2.9 2.9------------
2024-02-29 12:18 amESE 2.9 4.1----------- 2.23
2024-02-29 12:12 amESE 4.1 4.1----------- 2.20
2024-02-29 12:06 am SE 4.1 4.1----------- 2.13
2024-02-28 11:54 pmESE 4.1 5.1----30.19- 70.9- 67.8-- 2.07
2024-02-28 11:48 pm SE 5.1 5.1------ 70.7- 67.8-- 2.00
2024-02-28 11:42 pmSSE 5.1 6.0----------- 1.94
2024-02-28 11:36 pmSSE 6.0 7.0----------- 1.90
2024-02-28 11:30 pm SE 6.0 7.0----------- 1.80
2024-02-28 10:54 pmESE 7.0 8.0----30.19- 70.9- 68.0-- 1.48
2024-02-28 10:48 pmESE 6.0 7.0------ 71.1- 68.0-- 1.44
2024-02-28 10:42 pmESE 6.0 8.0------ 71.1- 68.0---
2024-02-28 10:36 pmESE 8.0 9.9----------- 1.31
2024-02-28 10:30 pm SE 8.0 8.9----------- 1.28
2024-02-28 09:54 pm SE 7.0 8.9----30.19- 70.3- 67.3---
2024-02-28 09:48 pmSSE 7.0 8.0----30.19- 70.3- 67.3-- 1.02
2024-02-28 09:42 pm SE 7.0 8.0----30.19- 70.3- 67.3-- 0.98
2024-02-28 09:36 pm SE 7.0 8.0----30.19- 70.3- 67.1---
2024-02-28 09:30 pm SE 7.0 8.0----30.19- 70.3- 67.3-- 0.92
2024-02-28 09:24 pm SE 7.0 8.0----30.19- 70.5- 67.3---
2024-02-28 09:18 pm SE 7.0 8.0----30.19- 70.5- 67.3-- 0.92
2024-02-28 09:12 pmSSE 8.0 8.9----30.19- 70.5- 67.1-- 0.89
2024-02-28 09:06 pmSSE 8.0 8.9----30.18- 70.5- 67.1-- 0.85
2024-02-28 09:00 pm SE 8.0 8.9----30.18- 70.7- 67.3-- 0.85
2024-02-28 08:54 pmSSE 8.0 8.9----30.18- 70.7- 67.3-- 0.82
2024-02-28 08:48 pm S 8.0 8.0------ 70.7- 67.3-- 0.82
2024-02-28 08:42 pmSSE 8.0 8.9------ 70.7- 67.5-- 0.82
2024-02-28 08:36 pmSSE 7.0 8.0----------- 0.82
2024-02-28 08:30 pm S 7.0 8.0----------- 0.79
2024-02-28 07:54 pm S 7.0 8.0----30.16- 70.9- 67.3-- 0.92
2024-02-28 07:48 pm S 6.0 7.0----30.16- 71.1- 67.3---
2024-02-28 07:42 pm S 7.0 7.0----30.16- 71.1- 67.5-- 0.98
2024-02-28 07:36 pmSSE 7.0 8.9----30.16- 71.1- 67.5-- 1.05
2024-02-28 07:30 pm S 8.0 8.9----30.15- 71.1- 67.3-- 1.08
2024-02-28 07:24 pm S 7.0 8.0----30.15- 71.1- 67.5-- 1.12
2024-02-28 07:18 pm S 7.0 8.0----30.15- 71.1- 67.3-- 1.18
2024-02-28 07:12 pmSSE 8.0 9.9----30.14- 71.2- 67.5-- 1.21
2024-02-28 07:06 pm SE 9.9 11.1----30.14- 71.4- 67.3-- 1.28
2024-02-28 07:00 pmSSE 9.9 11.1----30.14+0.02 71.4- 67.3-- 1.31
2024-02-28 06:54 pmSSE 8.9 11.1----30.14- 71.6- 67.3-- 1.35
2024-02-28 06:48 pm SE 8.9 11.1------ 71.4- 67.3-- 1.38
2024-02-28 06:42 pmSSE 8.9 9.9------ 71.4- 67.3-- 1.41
2024-02-28 06:36 pm S 8.9 11.1----------- 1.44
2024-02-28 06:30 pmSSE 8.9 11.1----------- 1.48
2024-02-28 05:54 pmSSE 8.9 11.1----30.14- 71.4- 67.3-- 1.80
2024-02-28 05:48 pm S 8.9 11.1----30.14- 71.4- 67.3-- 1.87
2024-02-28 05:42 pm S 8.9 11.1------ 71.4- 67.1-- 1.94
2024-02-28 05:36 pm S 9.9 11.1------ 71.6- 67.1-- 1.97
2024-02-28 05:30 pmSSE 9.9 12.0----------- 2.03
2024-02-28 05:24 pm S 11.1 13.0----------- 2.10
2024-02-28 05:18 pmSSE 11.1 13.0----------- 2.20
2024-02-28 04:54 pmSSE 9.9 12.0----30.12- 71.4- 67.1-- 2.40
2024-02-28 04:48 pmSSE 11.1 13.0----30.12- 71.1- 66.7-- 2.53
2024-02-28 04:42 pm S 11.1 13.0----30.12- 70.9- 66.7-- 2.62
2024-02-28 04:36 pm S 12.0 13.0----30.12- 70.9- 66.6-- 2.69
2024-02-28 04:30 pm S 11.1 13.0----30.12- 70.9- 66.6-- 2.76
2024-02-28 04:24 pm S 12.0 13.0----30.12- 70.9- 66.4-- 2.72
2024-02-28 04:18 pm S 12.0 14.0----30.12- 71.1- 66.4-- 2.79
2024-02-28 04:12 pm S 12.0 14.0----30.12- 71.2- 66.4-- 2.82
2024-02-28 04:06 pm S 12.0 13.0----30.12- 71.2- 66.4-- 2.92
2024-02-28 04:00 pm S 12.0 13.0----30.12- 71.6- 66.6-- 2.99
2024-02-28 03:54 pm S 11.1 12.0----30.12- 71.8- 66.6-- 3.05
2024-02-28 03:48 pmSSE 11.1 13.0----30.11- 72.1- 66.7-- 3.08
2024-02-28 03:42 pmSSE 11.1 13.0------ 72.0- 66.7-- 3.12
2024-02-28 03:36 pmSSE 11.1 13.0----------- 3.18
2024-02-28 03:30 pm S 12.0 14.0----------- 3.22
2024-02-28 02:54 pm S 12.0 14.0----30.11- 72.0- 66.2-- 3.35
2024-02-28 02:48 pm S 12.0 13.0------ 72.1- 65.8-- 3.35
2024-02-28 02:42 pmSSE 12.0 14.0------ 72.7- 66.0-- 3.41
2024-02-28 02:36 pm SE 12.0 14.0----------- 3.44
2024-02-28 02:30 pmSSE 12.0 14.0----------- 3.48
2024-02-28 02:24 pmSSE 12.0 14.0----------- 3.51
2024-02-28 01:54 pm SE 11.1 12.0----30.12- 72.5- 65.7-- 3.61
2024-02-28 01:48 pmSSE 12.0 13.0----30.12- 72.7- 65.7-- 3.64
2024-02-28 01:42 pmSSE 12.0 14.0------ 72.5- 65.5-- 3.67
2024-02-28 01:36 pm SE 13.0 14.0----------- 3.64
2024-02-28 01:30 pm SE 11.1 13.0----------- 3.58
2024-02-28 12:54 pmESE 14.0 15.9----30.12- 72.9- 65.3-- 3.44
2024-02-28 12:48 pm E 13.0 14.0----30.13- 72.9- 65.3-- 3.41
2024-02-28 12:42 pmESE 13.0 15.0----30.13- 73.0- 65.3-- 3.38
2024-02-28 12:36 pm E 13.0 14.0----30.13- 73.0- 65.3-- 3.41
2024-02-28 12:30 pmENE 13.0 14.0----30.13- 72.7- 65.5-- 3.41
2024-02-28 12:24 pm E 13.0 14.0----30.13- 72.7- 65.3-- 3.38
2024-02-28 12:18 pmESE 13.0 14.0----30.14- 73.0- 65.3-- 3.31
2024-02-28 12:12 pm E 13.0 15.0----30.14- 72.7- 65.1-- 3.28
2024-02-28 12:06 pmESE 13.0 15.0----30.14- 72.9- 65.1-- 3.22
2024-02-28 12:00 pmESE 13.0 14.0----30.14- 72.9- 65.1-- 3.15
2024-02-28 11:54 amESE 13.0 14.0----30.14- 72.7- 64.9-- 3.08
2024-02-28 11:48 am E 13.0 14.0------ 72.9- 64.9-- 3.02
2024-02-28 11:42 am E 13.0 14.0----------- 2.99
2024-02-28 11:36 amESE 13.0 14.0----------- 2.92
2024-02-28 10:54 am E 13.0 14.0----30.14- 72.1- 64.6-- 2.36
2024-02-28 10:48 am E 13.0 14.0----30.14- 72.0- 64.6-- 2.33
2024-02-28 10:42 am E 13.0 14.0------ 72.1- 64.6-- 2.30
2024-02-28 10:36 am E 13.0 14.0----------- 2.30
2024-02-28 10:30 am E 13.0 14.0----------- 2.23
2024-02-28 10:24 amESE 13.0 14.0----------- 2.20
2024-02-28 09:54 amESE 13.0 14.0----30.14- 71.6- 63.3-- 1.97
2024-02-28 09:48 am E 13.0 14.0----30.14- 71.2- 63.1-- 1.90
2024-02-28 09:42 am E 13.0 14.0------ 71.2- 62.8-- 1.84
2024-02-28 09:36 am E 13.0 14.0----------- 1.80
2024-02-28 09:30 am E 13.0 14.0----------- 1.74
2024-02-28 09:24 am E 13.0 14.0----------- 1.71
2024-02-28 08:54 amESE 12.0 14.0----30.14- 69.6- 61.7-- 1.54
2024-02-28 08:48 amESE 12.0 14.0----30.14- 69.4- 61.5-- 1.51
2024-02-28 08:42 amESE 11.1 13.0----30.13- 69.1- 61.3-- 1.48
2024-02-28 08:36 amESE 12.0 14.0----30.13- 69.3- 61.2-- 1.41
2024-02-28 08:30 am E 9.9 14.0----30.13- 68.9- 61.0-- 1.41
2024-02-28 08:24 am E 9.9 12.0----30.13- 68.5- 61.0-- 1.41
2024-02-28 08:18 am E 11.1 13.0----30.12- 68.4- 61.2-- 1.38
2024-02-28 08:12 amESE 12.0 13.0----30.12- 68.2- 60.8-- 1.38
2024-02-28 08:06 amESE 12.0 14.0----30.12- 68.0- 61.0-- 1.35
2024-02-28 08:00 am E 11.1 14.0----30.11- 67.8- 61.0-- 1.31
2024-02-28 07:54 amESE 12.0 13.0----30.11- 67.6- 60.8-- 1.31
2024-02-28 07:48 amESE 11.1 13.0----30.11- 67.3- 60.6-- 1.25
2024-02-28 07:42 amESE 11.1 12.0------ 67.3- 60.6-- 1.25
2024-02-28 07:36 amESE 11.1 12.0----------- 1.28
2024-02-28 07:30 amESE 9.9 12.0----------- 1.28
2024-02-28 07:24 amESE 12.0 14.0----------- 1.28
2024-02-28 07:18 am E 13.0 14.0------------
2024-02-28 06:54 amESE 12.0 14.0----30.09- 67.1- 60.1-- 1.25
2024-02-28 06:48 am E 13.0 14.0------ 67.1- 59.9-- 1.25
2024-02-28 06:42 am E 12.0 14.0------ 67.1- 59.9-- 1.25
2024-02-28 06:36 am E 12.0 14.0----------- 1.25
2024-02-28 06:30 am E 13.0 14.0----------- 1.25
2024-02-28 05:54 amENE 13.0 14.0----30.06- 66.6- 59.7-- 1.48
2024-02-28 05:48 amENE 13.0 14.0------ 66.2- 59.9-- 1.57
2024-02-28 05:42 amENE 13.0 14.0------ 66.0- 60.1-- 1.64
2024-02-28 05:36 am E 12.0 14.0----------- 1.71
2024-02-28 05:30 amENE 12.0 14.0----------- 1.77
2024-02-28 05:24 amENE 12.0 13.0----------- 1.84
2024-02-28 04:54 am E 8.9 9.9----30.08- 65.1- 59.9-- 2.13
2024-02-28 04:48 amENE 8.0 9.9----30.09- 65.1- 60.1-- 2.17
2024-02-28 04:42 am E 8.0 8.9------ 65.1- 59.9-- 2.23
2024-02-28 04:36 am E 7.0 8.9----------- 2.26
2024-02-28 04:30 am E 7.0 8.0----------- 2.30
2024-02-28 04:24 amENE 7.0 7.0----------- 2.36
2024-02-28 04:18 am E 7.0 8.0----------- 2.40
2024-02-28 03:54 amENE 8.0 9.9----30.09- 65.5- 60.6-- 2.62
2024-02-28 03:48 amENE 7.0 8.0------ 65.5- 60.6-- 2.66
2024-02-28 03:42 am E 7.0 8.9------ 65.7- 60.8-- 2.69
2024-02-28 03:36 am E 8.0 8.9----------- 2.72
2024-02-28 03:30 amENE 7.0 8.0----------- 2.79
2024-02-28 02:54 am E 7.0 8.9----30.11- 65.8- 60.8-- 2.89